Temp_Advection
nan nan nan nan nan nan nan nan nan nan nan nan nan nan nan nan nan nan nan nan nan nan nan nan nan nan nan nan nan nan nan nan nan nan nan nan nan nan nan nan nan nan nan nan nan nan nan nan nan
nan 0 -0 -0 -0 -0 -0 -0 -0 -0 -0 -0 -0 0 0 -0 -1 -0 0 0 0 -0 -1 0 0 -0 -0 -0 -0 0 0 0 0 0 -0 0 -0 0 0 0 -0 -0 0 -0 -0 -0 0 0 nan
nan 0 -0 -0 -0 -0 0 0 -0 -0 0 0 -0 0 -0 -0 -0 -0 -0 -0 -0 -0 -0 -0 0 0 0 -0 -0 0 0 0 0 0 0 0 0 0 0 -0 -0 -0 -0 -0 -0 -0 -0 0 nan
nan -0 -1 -0 -0 0 0 -0 -0 -0 -0 -0 -0 -0 -1 -0 0 -0 -0 0 -0 -0 0 -0 -0 0 0 -0 0 -0 -0 -0 0 -0 0 0 0 -0 0 0 -0 -0 0 -0 -0 -0 0 0 nan
nan -0 -0 -0 -0 0 -0 -0 -0 -0 -0 -0 -0 -0 -1 -0 0 0 -0 -0 -0 -0 -0 0 -0 -0 -0 -0 0 0 0 -0 -0 -0 -0 0 -0 -0 0 0 0 -0 -0 0 -0 -0 -0 0 nan
nan -0 -0 -0 -0 0 -0 -0 -0 -0 -0 -0 -0 -1 -1 -0 -0 -0 -0 0 0 -0 -0 -0 0 0 -0 -0 -0 0 0 0 -0 -0 0 -0 -0 0 -0 -0 0 0 0 0 -0 -0 -0 -0 nan
nan -0 0 -0 -0 -0 -0 -0 0 -0 -0 -0 0 -0 -1 -0 0 -0 0 0 0 0 -0 -0 0 0 0 0 -0 -0 0 0 -0 -0 0 0 -0 -0 -0 -0 -0 0 0 0 0 0 -0 -0 nan
nan -0 -0 -0 -0 0 -0 -0 0 0 -0 -0 0 -0 -1 -0 0 0 -0 0 0 0 -0 -0 -0 -0 0 0 0 -0 -0 0 0 0 -0 0 0 0 -0 -0 -0 -0 0 0 0 0 0 0 nan
nan -0 -0 -0 -0 -0 -0 -0 -0 -0 -0 -0 0 0 -0 -1 -0 -0 -0 -0 -0 -0 -0 -0 -0 -0 -0 -0 0 0 0 0 0 -0 0 0 0 -0 -0 -0 -0 -0 -0 -0 -0 -0 -0 0 nan
nan 0 0 0 0 -0 -0 0 -0 -0 -0 -0 -0 -0 0 -1 -0 -0 -1 -1 -1 -0 -0 0 0 -0 -0 -0 0 -0 -0 0 0 0 0 0 0 0 -0 -0 0 -0 -0 0 -0 -0 -0 -0 nan
nan 0 0 -0 -0 -0 -0 0 -0 -0 -0 -0 -0 -0 -0 -1 -1 -1 -0 -0 -0 -0 -0 0 0 0 0 0 -0 -0 -0 -0 -0 -0 0 0 -0 -0 0 -0 0 0 0 0 -0 0 -0 0 nan
nan -0 0 0 0 0 0 -0 -0 0 -0 0 -0 -0 -1 -1 -1 -0 -0 -0 -0 0 -0 -0 -0 0 0 -0 -0 0 -0 -0 -0 -0 -0 0 0 -0 0 0 -0 0 -0 0 0 0 0 0 nan
nan -0 0 0 -0 0 0 -0 0 0 -0 0 -0 -0 -1 -1 -0 -0 -0 0 0 -0 -0 -0 -0 -0 0 0 0 0 0 -0 -0 -0 -0 -0 0 0 -0 0 -0 -0 -0 0 0 -0 0 0 nan
nan -0 -0 -0 -0 -0 0 0 0 -0 -0 -0 -0 -0 -0 -0 -0 0 0 0 -0 -0 -0 -0 -0 -0 -0 -0 -0 0 0 -0 -0 -0 -0 -0 0 -0 -0 -0 -0 -0 -0 0 0 -0 0 0 nan
nan -0 -0 -0 -0 0 0 -0 -0 -0 -0 -0 -1 -0 -0 -0 0 0 0 0 -0 -0 0 0 -0 -0 -0 -0 -0 -0 -0 -0 -0 -0 -0 -0 -0 -0 -0 0 -0 0 0 0 0 0 0 0 nan
nan -0 0 -0 0 -0 -0 0 -0 0 -1 -1 -0 -0 -0 -0 -0 -0 -0 -0 -0 -0 0 0 -0 -0 -0 0 0 -0 -0 0 -0 -0 -0 0 -0 -0 0 -0 -0 0 0 -0 0 0 0 0 nan
nan -0 0 -0 -0 -0 -0 -0 -0 -0 -1 -0 -0 -1 -0 -0 -0 -0 -0 -0 -0 0 0 0 0 0 0 0 0 -0 -0 0 -0 -0 -0 -0 -0 -0 0 0 0 0 -0 0 0 -0 0 -0 nan
nan -0 0 0 -0 0 -0 -0 -0 -0 -0 -0 -0 -0 -0 -0 -0 -0 -0 -0 -0 0 -0 -0 -0 0 0 -0 -0 -0 -0 -0 -0 -0 -0 -0 -0 -0 0 0 0 -0 -0 -0 0 0 0 -0 nan
nan 0 -0 0 0 0 -0 -0 0 -1 -0 -0 -1 -0 -0 -0 -1 -0 -0 -0 -0 -0 -0 -0 -0 -0 -1 -0 -0 -0 -0 -0 -0 -0 -0 -0 -0 -0 0 0 0 0 0 -0 -0 -0 0 0 nan
nan 0 -0 -0 0 0 -0 -0 -0 -1 0 -0 -0 -0 -1 -1 -0 -0 -0 -0 -0 -0 -0 -0 -1 -1 -1 -0 -0 0 0 -0 0 0 -0 -0 -0 -0 0 0 0 0 -0 0 0 -0 -0 0 nan
nan 0 0 -0 -1 0 0 -0 -0 0 -0 -0 -0 -0 -0 -1 -0 -0 -0 -0 -0 -0 0 -0 -1 -1 -0 -0 0 0 -0 -0 -0 -0 -0 -0 -0 -0 -0 0 0 0 -0 0 0 0 -0 -0 nan
nan 0 0 0 -0 -0 0 -0 -0 -0 -0 -0 -0 -0 -0 -0 -0 -0 -1 -1 -1 -0 -0 -0 -0 -1 0 -0 -0 -0 -1 -0 -0 -0 -0 0 0 -0 -0 -0 0 0 0 0 0 0 0 -0 nan
nan -0 0 0 -0 -0 -0 -0 -0 -0 -0 -1 -1 -0 -0 -0 -1 -0 -0 -1 -0 -0 0 -0 -0 -0 -0 -0 -0 -0 -0 0 0 0 0 -0 -0 -0 -0 -0 0 0 0 0 -0 0 0 0 nan
nan -0 -0 -0 0 0 0 -0 0 0 0 0 -1 -0 -0 -0 -0 -0 -0 -0 -0 0 0 -0 -0 -0 -0 -0 -0 -0 0 -0 0 0 -0 -0 -0 -0 0 -0 -0 0 0 0 0 0 0 0 nan
nan 0 0 -0 0 -0 0 -0 -0 0 0 -0 0 0 0 -0 -0 -0 -0 -0 0 0 0 0 -0 -0 -0 -0 -0 -0 -0 1 1 -0 -0 -0 -0 -0 0 0 0 0 -0 -0 -0 -0 0 0 nan
nan 0 1 0 -1 -0 -0 -0 -0 0 0 -0 0 0 -0 -1 -1 -0 -0 -0 0 0 0 0 -0 -0 -0 -0 -0 -0 0 0 0 -0 -0 -0 0 0 0 0 -0 -0 -0 -0 0 0 0 0 nan
nan -0 -0 -0 0 0 -1 -1 -0 0 -0 0 -0 -0 -0 -1 -0 -0 -0 -0 0 0 -0 -0 -0 -0 -0 0 -0 -0 -0 0 -0 -1 -0 0 -0 0 0 0 -0 -0 -0 0 0 0 0 0 nan
nan -0 0 0 1 -1 -1 -0 -0 -0 -0 -0 -0 -0 -0 -0 -0 -0 -0 -0 0 -0 -0 -0 -0 -0 0 0 -0 -0 -0 -0 -0 -0 -0 -0 -1 -0 -0 -0 -1 -0 0 0 0 0 -0 -0 nan
nan 0 -1 -0 0 0 -0 -1 -0 -0 -0 -0 -0 -1 0 0 0 -0 -0 -0 -0 -0 -0 -0 -0 -0 -0 -1 -0 -0 -1 -0 0 -0 -0 -1 -0 -0 -0 -0 0 0 0 0 -0 0 0 1 nan
nan nan nan nan nan nan nan nan nan nan nan nan nan nan nan nan nan nan nan nan nan nan nan nan nan nan nan nan nan nan nan nan nan nan nan nan nan nan nan nan nan nan nan nan nan nan nan nan nan
Wind_Speed
3 3 3 3 5 2 7 5 8 9 8 5 12 1 2 5 5 4 16 18 20 19 17 17 14 13 11 9 8 9 9 8 8 8 8 8 8 7 7 6 6 6 8 9 8 6 4 6 8
2 3 3 3 4 6 7 5 7 5 7 13 6 5 3 5 7 13 19 20 21 18 16 13 13 11 10 9 7 8 8 8 8 8 8 8 9 9 8 9 11 10 11 9 7 7 8 7 8
2 3 3 4 2 8 9 7 8 10 12 12 4 2 2 4 7 18 18 23 20 18 16 15 13 11 10 8 7 7 8 8 9 7 8 10 10 9 9 11 10 10 10 7 7 7 5 7 9
3 2 4 1 10 8 9 7 11 10 7 3 5 6 7 3 15 11 23 21 19 17 16 16 14 12 9 8 8 6 7 9 9 7 9 10 9 8 9 10 9 8 7 6 6 6 7 7 8
3 3 2 6 9 6 5 8 7 5 5 8 5 6 12 8 11 20 21 19 17 16 14 15 15 12 9 8 7 7 8 9 8 9 11 10 10 9 9 9 9 7 6 5 6 7 6 7 7
3 4 3 5 10 4 5 8 4 5 7 7 9 15 9 10 17 20 18 18 16 16 14 12 13 11 9 7 8 7 9 10 9 12 10 10 10 9 10 10 8 7 6 5 5 6 5 5 5
5 5 7 6 8 5 5 7 4 5 5 5 11 9 10 14 18 19 17 16 16 15 14 11 9 10 8 8 7 7 9 9 10 11 10 10 9 9 9 8 7 6 5 5 4 4 3 3 3
4 4 3 3 4 9 8 9 6 1 5 10 8 5 14 18 20 18 16 15 15 15 13 12 10 9 9 5 8 9 8 10 11 9 9 10 8 7 7 7 6 5 4 4 5 3 3 2 4
3 4 6 7 1 6 8 7 6 4 9 6 4 5 17 22 21 19 17 16 15 15 14 12 10 10 10 9 8 9 9 8 11 8 8 9 6 4 6 3 5 5 5 5 5 5 3 2 3
5 3 6 4 3 3 8 6 8 6 7 7 9 12 21 23 22 20 19 18 17 16 15 13 11 10 10 9 10 9 8 6 9 7 6 7 7 7 9 5 4 4 3 2 0 2 3 2 2
1 5 3 3 5 2 5 7 7 5 4 7 13 19 23 23 20 19 17 17 17 16 15 13 12 12 11 10 8 8 8 8 7 8 8 7 6 4 4 4 2 1 2 3 3 3 1 5 4
4 3 3 2 2 5 6 6 6 7 5 5 11 22 24 22 20 18 17 16 17 16 15 14 13 11 11 10 10 10 9 9 7 7 8 7 7 5 5 4 3 3 2 1 0 2 4 6 7
7 2 4 6 7 7 7 9 4 9 3 10 16 24 22 20 19 17 15 15 15 16 16 15 14 13 13 12 11 10 10 9 9 8 8 8 8 6 4 5 3 4 2 2 2 4 5 7 8
11 9 7 5 10 9 9 7 7 10 10 14 19 23 20 18 18 17 17 16 15 14 15 16 16 14 13 12 13 11 10 9 9 8 8 9 7 5 4 3 2 3 3 3 4 5 6 8 8
9 8 5 4 8 5 9 7 11 12 16 17 20 21 21 20 18 18 17 17 15 14 15 16 16 15 15 14 13 11 11 9 8 8 9 8 7 5 7 4 4 4 5 5 6 6 7 9 9
5 7 7 6 6 5 11 4 14 16 20 19 21 21 20 20 19 18 17 17 17 16 16 17 16 16 16 14 14 12 11 10 8 9 8 8 7 6 5 4 5 6 5 5 6 6 8 8 9
6 11 13 6 8 5 13 5 8 19 20 19 21 23 22 20 20 19 18 17 17 17 16 17 18 18 17 16 14 13 11 10 9 9 9 9 8 6 5 5 5 5 4 5 5 6 9 10 9
13 14 12 10 3 9 12 14 7 17 19 19 21 22 24 23 24 22 20 18 17 17 17 17 17 18 18 15 15 13 11 11 10 10 10 11 9 9 7 7 8 4 5 2 4 6 5 8 9
11 12 12 11 7 6 12 14 11 17 20 19 21 22 24 26 24 23 22 20 19 18 18 19 19 21 19 17 16 15 13 11 11 11 12 11 11 9 10 7 7 4 5 5 6 6 8 7 8
11 12 12 9 8 8 9 11 9 15 21 22 22 22 24 26 26 25 24 23 22 21 21 21 21 22 23 18 17 15 13 12 11 11 11 11 10 11 10 7 6 6 4 7 5 6 5 6 7
13 9 13 15 18 10 9 7 5 11 18 21 22 22 24 27 27 27 26 26 24 23 24 24 25 23 24 21 18 15 13 12 13 13 13 12 11 12 12 11 6 7 4 3 6 5 5 5 7
14 11 13 16 15 11 5 6 6 6 13 18 23 25 24 26 28 27 27 26 25 24 23 24 26 27 25 25 20 19 15 14 13 13 13 15 13 12 13 12 9 8 6 7 5 5 5 7 7
13 9 12 12 15 11 8 7 9 3 7 14 23 28 27 26 28 29 28 26 25 23 22 23 25 27 27 27 26 21 19 15 13 12 13 16 15 14 12 13 11 8 6 7 6 8 9 8 10
12 14 14 12 9 11 7 6 7 3 8 6 13 26 30 28 28 28 27 25 24 23 22 22 25 27 28 29 27 28 22 19 15 15 13 15 14 12 14 13 11 9 8 7 6 6 7 9 8
10 14 10 9 9 6 6 8 7 7 12 11 6 11 30 30 29 29 29 28 26 25 24 24 25 28 28 29 28 27 26 24 21 18 14 15 15 14 12 13 12 10 9 8 7 7 8 8 6
16 13 11 10 10 9 4 7 3 11 6 11 7 4 22 31 30 29 29 29 28 27 26 25 26 28 29 29 27 25 24 24 21 18 18 18 18 17 16 15 15 15 12 11 10 6 7 8 7
16 13 18 19 17 9 13 13 13 3 9 13 14 4 17 30 29 28 28 29 29 28 29 29 29 30 31 30 27 26 25 24 21 21 20 20 20 17 18 17 16 15 15 13 11 9 10 10 8
15 8 9 12 17 17 11 12 10 8 8 10 12 10 12 25 25 26 26 27 28 28 29 29 30 30 31 28 29 28 26 24 25 24 24 21 20 23 23 20 19 18 17 14 12 10 11 11 9
9 13 13 16 12 14 13 12 5 1 5 6 10 13 1 21 28 28 28 26 27 27 28 30 31 30 30 31 28 28 28 27 26 26 25 25 23 23 23 23 21 21 19 17 16 16 15 14 12
11 15 16 12 18 14 15 15 4 5 2 5 9 12 11 6 23 28 31 30 28 28 29 30 31 31 31 33 32 31 30 29 27 28 27 26 25 24 23 22 22 22 22 19 18 17 13 13 12
Wind_Direction
339 301 297 281 228 225 80 85 114 116 138 99 137 195 59 28 357 46 138 147 151 152 155 154 151 154 145 133 124 124 131 125 121 126 141 150 146 131 123 115 118 123 128 124 124 125 133 121 119
221 322 294 277 260 100 81 108 94 109 109 143 127 124 139 88 64 124 140 147 146 150 147 152 157 164 154 142 133 122 128 131 129 140 140 146 135 122 108 114 117 110 110 114 123 114 105 109 121
3 352 271 281 32 76 92 83 98 107 136 148 122 37 64 63 118 134 150 144 147 147 149 179 155 159 157 145 136 132 136 132 134 144 140 134 127 120 106 117 116 114 117 127 118 112 122 123 120
314 287 246 288 92 90 69 89 115 125 145 168 141 105 90 106 136 141 144 145 149 148 153 170 153 153 152 150 141 140 137 131 128 137 134 126 129 119 114 111 122 117 125 117 115 116 117 121 132
312 258 175 113 96 94 91 113 137 134 135 160 191 106 113 113 134 141 142 147 153 150 155 158 160 159 157 151 145 143 140 138 135 141 132 129 128 124 113 118 118 126 121 116 120 135 126 121 136
261 270 174 105 102 108 123 145 139 110 121 124 126 126 117 135 139 144 148 150 154 151 149 161 160 158 154 154 147 145 139 137 140 130 139 135 125 128 120 122 122 114 111 107 129 140 144 129 133
305 282 60 80 90 137 144 157 157 123 130 124 140 137 135 147 153 151 151 155 154 156 156 152 158 162 160 161 152 140 139 136 141 135 134 134 135 130 131 139 135 135 126 122 114 130 159 163 124
290 272 125 71 80 89 143 169 153 147 80 132 148 159 159 158 157 157 156 156 157 159 158 158 155 161 149 150 150 147 149 145 149 142 145 141 135 132 128 140 145 139 122 121 112 113 122 148 155
286 244 92 87 147 87 160 162 163 144 143 165 141 133 153 157 155 157 159 161 163 160 160 153 154 154 160 170 165 163 144 152 154 139 153 133 131 120 94 168 146 141 143 132 111 75 58 133 186
271 25 55 29 21 53 170 186 168 182 163 154 134 129 148 155 160 165 168 170 170 169 165 167 160 163 165 157 177 155 164 159 149 148 153 142 156 164 159 159 141 140 157 148 87 10 24 49 258
31 29 1 345 342 348 155 185 182 208 198 192 179 157 158 164 170 175 178 178 175 175 178 179 176 168 169 168 166 161 164 169 172 168 154 169 153 151 136 196 178 185 278 180 334 330 296 240 249
250 197 226 276 187 180 176 171 201 204 17 179 167 170 167 172 176 178 178 177 181 183 184 185 185 177 172 173 157 173 169 166 165 175 165 160 130 159 161 150 172 151 200 273 17 285 264 278 290
243 349 239 224 201 213 177 182 187 198 143 153 157 166 172 175 176 175 173 175 179 186 189 187 187 184 181 174 173 174 172 164 174 170 171 167 167 168 179 132 162 178 202 281 322 286 287 286 301
334 301 282 236 206 195 197 197 192 181 165 154 163 172 176 178 179 178 179 178 180 181 185 186 187 186 182 181 175 173 173 173 178 177 183 171 169 190 186 194 214 248 252 266 278 284 305 302 317
306 296 199 212 195 186 206 215 218 173 174 166 173 177 180 184 187 189 187 186 182 182 183 186 183 186 184 181 174 177 174 177 177 179 187 176 179 209 190 229 237 255 265 277 296 298 310 320 328
277 222 16 117 197 171 206 314 193 178 183 180 180 180 184 189 191 192 190 188 188 186 186 184 183 185 183 180 174 177 181 183 182 189 194 183 186 200 235 245 254 259 272 284 294 310 323 320 323
34 9 16 65 186 178 213 297 165 182 189 190 188 189 190 191 190 194 194 191 189 190 191 188 187 185 187 184 183 182 192 191 199 202 205 223 216 226 244 251 265 272 271 282 284 309 320 337 334
341 352 356 7 94 225 234 253 159 191 194 194 196 195 196 198 197 194 195 195 192 194 194 193 191 190 188 192 192 198 205 209 214 213 212 222 226 235 241 259 259 266 263 274 283 288 315 319 331
309 322 344 8 12 282 253 255 239 194 203 199 197 198 198 203 201 200 199 199 199 199 198 198 198 199 196 198 201 206 211 214 217 216 220 218 226 237 243 253 276 288 280 272 298 324 328 346 337
300 312 349 344 22 291 291 284 252 190 206 205 202 201 200 201 201 202 202 203 204 206 204 202 204 207 207 204 205 211 217 220 220 221 224 221 231 230 234 238 252 281 249 298 306 305 321 344 334
296 337 345 331 331 257 292 228 185 208 205 213 212 208 205 202 201 202 204 206 208 210 210 208 211 212 215 208 211 215 216 216 221 225 229 231 231 228 236 256 252 258 273 280 297 324 316 324 338
298 2 327 326 325 330 339 325 120 180 203 211 216 212 208 201 202 202 202 205 207 211 213 211 215 216 217 218 212 214 217 223 226 227 229 222 230 234 238 243 256 274 256 257 280 312 302 312 320
296 333 313 313 306 301 170 265 117 189 202 212 217 212 211 203 200 201 203 204 206 209 209 209 211 216 215 220 216 221 223 226 223 221 223 217 222 229 233 245 259 263 265 269 270 280 292 293 301
299 289 282 256 271 275 78 312 142 62 359 346 198 214 209 205 200 202 204 204 205 206 207 205 207 215 216 220 222 226 223 218 218 220 219 212 220 230 245 242 244 251 255 263 271 291 308 308 295
247 263 269 258 239 251 66 301 292 352 349 352 320 211 206 203 200 199 201 203 204 205 205 204 204 209 212 216 221 224 229 230 223 220 220 213 220 226 229 234 243 247 250 251 262 289 312 316 311
273 287 274 264 262 274 118 266 241 353 328 27 2 273 194 196 198 198 199 201 202 204 204 202 206 206 209 214 219 223 228 227 224 226 215 220 217 220 218 223 233 242 243 254 277 282 278 278 293
265 233 250 267 269 258 265 268 263 173 8 13 21 70 180 192 197 199 201 203 204 204 204 203 203 208 209 211 217 223 224 221 219 218 226 223 221 222 224 229 237 242 250 258 257 275 276 275 281
250 302 227 224 252 262 266 249 267 292 351 14 17 46 185 191 197 197 200 202 203 203 205 204 206 209 211 210 217 223 226 227 228 229 227 224 225 230 225 236 239 243 250 257 266 273 277 272 286
187 230 233 269 260 250 252 251 299 52 358 19 26 18 205 200 194 197 198 198 199 201 201 204 205 208 211 214 216 220 226 230 230 233 233 232 234 235 236 240 242 242 250 257 264 274 261 269 264
288 284 271 241 236 231 263 258 236 101 4 40 21 29 16 266 214 206 202 203 204 200 202 204 206 207 211 214 215 219 226 230 230 233 234 234 234 237 239 240 243 246 253 256 263 274 258 265 262
Height
1515 1515 1515 1515 1511 1497 1508 1515 1505 1512 1514 1516 1520 1522 1521 1524 1523 1532 1537 1541 1545 1549 1550 1552 1555 1557 1558 1559 1561 1561 1562 1563 1563 1564 1565 1566 1567 1567 1568 1568 1568 1569 1570 1571 1572 1572 1572 1572 1573
1517 1516 1517 1514 1503 1504 1515 1505 1510 1510 1515 1518 1521 1523 1524 1526 1530 1533 1537 1542 1546 1550 1553 1555 1555 1558 1559 1561 1561 1562 1563 1564 1564 1565 1566 1567 1567 1568 1569 1569 1570 1571 1572 1573 1574 1573 1574 1573 1574
1516 1515 1516 1506 1503 1512 1516 1508 1512 1516 1519 1520 1522 1523 1526 1530 1533 1536 1538 1543 1548 1552 1555 1554 1555 1558 1559 1561 1561 1562 1563 1564 1565 1566 1568 1567 1569 1569 1570 1571 1572 1573 1573 1574 1574 1575 1575 1574 1574
1519 1519 1515 1502 1511 1512 1508 1511 1515 1518 1520 1521 1522 1523 1530 1533 1534 1537 1540 1544 1549 1552 1555 1554 1556 1558 1560 1562 1562 1564 1564 1565 1566 1567 1568 1568 1570 1571 1572 1572 1574 1574 1575 1575 1575 1575 1575 1575 1576
1519 1516 1506 1504 1512 1509 1509 1512 1515 1516 1518 1521 1522 1524 1531 1535 1536 1539 1542 1547 1550 1553 1555 1554 1556 1558 1560 1562 1563 1564 1565 1565 1566 1568 1569 1570 1571 1572 1573 1574 1574 1575 1576 1576 1576 1576 1576 1577 1577
1517 1513 1506 1510 1509 1511 1511 1514 1516 1516 1519 1523 1522 1526 1532 1536 1538 1541 1545 1548 1551 1553 1556 1555 1556 1558 1560 1562 1563 1564 1565 1566 1567 1568 1569 1571 1572 1573 1574 1575 1575 1576 1576 1576 1576 1577 1577 1578 1578
1516 1504 1507 1506 1510 1511 1512 1515 1515 1517 1519 1520 1524 1525 1534 1537 1540 1543 1546 1549 1551 1554 1557 1557 1559 1559 1560 1562 1564 1565 1566 1566 1568 1569 1570 1571 1573 1574 1575 1576 1576 1577 1577 1577 1577 1577 1577 1578 1578
1516 1508 1507 1507 1511 1510 1510 1514 1517 1517 1520 1523 1524 1523 1531 1536 1539 1543 1546 1549 1552 1554 1557 1558 1560 1562 1564 1563 1564 1566 1567 1567 1568 1570 1571 1572 1574 1575 1576 1577 1577 1577 1577 1577 1577 1577 1577 1577 1577
1517 1502 1507 1507 1509 1507 1510 1512 1517 1519 1521 1522 1525 1524 1529 1534 1539 1543 1546 1549 1551 1554 1557 1559 1561 1562 1563 1564 1565 1566 1567 1568 1569 1571 1572 1573 1578 1576 1577 1577 1577 1577 1577 1577 1578 1578 1577 1577 1577
1512 1501 1506 1504 1503 1503 1508 1511 1515 1517 1518 1523 1526 1528 1531 1535 1539 1542 1545 1548 1551 1554 1556 1559 1561 1563 1564 1565 1565 1568 1569 1571 1572 1574 1573 1576 1577 1579 1580 1578 1577 1577 1577 1577 1577 1577 1577 1577 1577
1509 1505 1506 1505 1505 1506 1507 1511 1514 1513 1516 1518 1522 1528 1531 1535 1539 1541 1544 1547 1550 1553 1556 1558 1559 1560 1562 1564 1565 1569 1570 1571 1572 1573 1575 1577 1578 1578 1580 1580 1579 1580 1578 1579 1579 1579 1578 1579 1578
1505 1505 1505 1505 1506 1506 1507 1510 1512 1514 1515 1516 1521 1526 1530 1534 1537 1540 1542 1546 1549 1552 1554 1557 1558 1559 1562 1563 1565 1568 1570 1571 1573 1574 1573 1576 1578 1579 1580 1580 1579 1579 1580 1578 1579 1580 1579 1577 1575
1506 1502 1504 1504 1504 1506 1507 1508 1510 1513 1516 1518 1521 1526 1529 1533 1536 1539 1541 1545 1548 1550 1552 1555 1557 1558 1560 1561 1565 1567 1569 1570 1573 1573 1573 1576 1578 1579 1578 1578 1577 1578 1579 1578 1578 1577 1576 1574 1573
1504 1503 1501 1501 1502 1503 1506 1507 1511 1512 1516 1518 1521 1524 1528 1531 1534 1538 1541 1544 1547 1549 1551 1554 1556 1556 1559 1560 1561 1565 1568 1571 1572 1573 1574 1573 1577 1578 1579 1579 1578 1577 1577 1577 1576 1574 1573 1573 1571
1503 1501 1496 1497 1500 1501 1504 1509 1507 1508 1514 1517 1520 1523 1526 1529 1533 1536 1539 1542 1545 1547 1550 1552 1554 1556 1557 1558 1560 1564 1567 1570 1571 1572 1572 1572 1574 1575 1575 1576 1575 1576 1575 1574 1574 1572 1572 1571 1570
1494 1493 1494 1492 1498 1500 1504 1499 1499 1506 1510 1513 1517 1521 1524 1527 1530 1534 1537 1540 1543 1545 1547 1549 1553 1555 1556 1559 1560 1564 1567 1569 1570 1571 1572 1571 1572 1572 1572 1574 1574 1575 1575 1575 1574 1573 1573 1571 1570
1488 1499 1495 1489 1493 1496 1500 1493 1492 1501 1505 1509 1513 1517 1521 1525 1528 1531 1534 1537 1540 1542 1544 1546 1549 1553 1556 1558 1561 1563 1566 1567 1569 1571 1572 1571 1571 1571 1570 1572 1574 1572 1574 1574 1573 1573 1572 1571 1570
1507 1500 1491 1491 1486 1492 1494 1493 1493 1499 1500 1504 1509 1512 1517 1521 1524 1527 1531 1535 1537 1540 1543 1545 1548 1551 1554 1557 1559 1562 1565 1566 1568 1569 1570 1570 1570 1569 1569 1571 1572 1571 1571 1573 1573 1571 1572 1569 1568
1496 1494 1490 1485 1486 1488 1485 1484 1482 1491 1496 1498 1503 1506 1511 1515 1520 1524 1527 1531 1534 1537 1540 1542 1545 1548 1551 1554 1557 1560 1562 1564 1566 1567 1567 1568 1568 1568 1568 1570 1572 1570 1570 1571 1570 1570 1571 1569 1569
1492 1491 1488 1480 1480 1487 1480 1480 1474 1479 1488 1492 1496 1501 1504 1510 1514 1519 1523 1527 1530 1533 1536 1539 1542 1545 1548 1552 1555 1558 1561 1563 1565 1566 1566 1566 1566 1566 1568 1569 1570 1570 1570 1569 1569 1569 1569 1570 1568
1486 1489 1492 1491 1476 1467 1478 1470 1472 1473 1480 1486 1489 1493 1497 1502 1507 1512 1517 1520 1525 1528 1531 1534 1537 1541 1545 1549 1552 1554 1557 1559 1561 1562 1563 1564 1564 1564 1565 1566 1568 1568 1568 1570 1568 1568 1568 1569 1567
1494 1482 1487 1486 1485 1489 1476 1485 1468 1466 1473 1478 1482 1486 1490 1494 1501 1506 1511 1515 1519 1523 1527 1529 1532 1536 1540 1544 1549 1550 1554 1556 1558 1559 1560 1562 1562 1562 1563 1564 1565 1566 1568 1568 1568 1568 1568 1567 1567
1491 1485 1486 1486 1483 1475 1474 1480 1466 1465 1467 1466 1472 1476 1482 1487 1493 1499 1504 1509 1513 1518 1521 1524 1527 1532 1536 1539 1543 1546 1549 1553 1555 1556 1556 1556 1559 1559 1561 1562 1563 1564 1565 1566 1565 1565 1565 1565 1565
1484 1484 1479 1476 1476 1489 1474 1478 1460 1457 1456 1452 1456 1467 1473 1479 1486 1493 1499 1504 1508 1513 1517 1520 1523 1527 1531 1534 1538 1541 1544 1548 1551 1552 1553 1555 1556 1558 1558 1559 1561 1562 1563 1562 1561 1561 1561 1560 1561
1483 1483 1495 1497 1488 1489 1471 1482 1459 1450 1448 1449 1451 1454 1463 1472 1479 1485 1492 1497 1502 1507 1511 1516 1519 1522 1526 1530 1533 1536 1539 1542 1545 1547 1550 1552 1553 1555 1556 1556 1557 1559 1560 1559 1560 1558 1558 1558 1557
1476 1478 1493 1513 1501 1483 1467 1483 1457 1448 1448 1450 1447 1448 1455 1464 1471 1478 1484 1491 1496 1502 1506 1511 1515 1518 1522 1525 1528 1532 1535 1538 1540 1544 1546 1546 1547 1549 1550 1551 1551 1553 1554 1555 1555 1556 1556 1555 1556
1477 1485 1471 1480 1469 1487 1474 1459 1446 1446 1446 1448 1444 1448 1451 1459 1465 1472 1479 1485 1491 1496 1500 1503 1509 1513 1516 1520 1524 1527 1530 1533 1537 1538 1539 1541 1543 1546 1547 1547 1548 1550 1551 1552 1553 1554 1554 1552 1552
1473 1465 1481 1477 1504 1503 1477 1470 1466 1450 1451 1448 1447 1447 1452 1455 1462 1468 1475 1480 1485 1490 1494 1499 1503 1507 1511 1516 1519 1522 1525 1528 1531 1532 1533 1536 1539 1539 1541 1543 1545 1547 1547 1548 1549 1549 1549 1548 1548
1472 1474 1469 1463 1463 1483 1487 1469 1437 1448 1450 1449 1449 1451 1451 1454 1455 1460 1467 1474 1479 1484 1489 1493 1497 1502 1506 1510 1514 1517 1520 1522 1524 1527 1528 1530 1532 1534 1537 1539 1541 1542 1543 1544 1544 1544 1543 1543 1542
1466 1464 1457 1466 1476 1463 1468 1462 1434 1445 1450 1450 1452 1455 1456 1455 1455 1458 1461 1466 1472 1477 1482 1486 1490 1495 1498 1502 1507 1511 1514 1516 1519 1521 1522 1525 1527 1530 1532 1534 1536 1538 1539 1540 1541 1541 1541 1540 1539